Location: Heilbronn
(49.1548°N, 9.2780°E)
Time: 19:55:40
(UTC+02:00)

ISS - Pass Details

Date: 21 March 2017
Orbit: 399 x 409 km, 51.6° (Epoch: 29 March)

Event Time Altitude Azimuth Distance (km) Brightness Sun altitude
Exits shadow 04:36:31 52° 202° (SSW) 519 -3.6 -17.9°
Drops below altitude 10° 04:39:40 10° 131° (SE) 1,472 -0.7 -17.4°
Sets 04:41:46 0° 126° (SE) 2,331 0.5 -17.1°
